| time (UTC) | temp F | wind direction | speed knots | gust knots | rain 1hr in | rain 24hr in | rain mn in | humidity % | barometer mb |
| 20260505230949 | 72 | 201 | 1.7 | 5.2 | 0.00 | 0.00 | 0.00 | 70 | 1004.3 |
| 20260505230447 | 73 | 294 | 1.7 | 7.8 | 0.00 | 0.00 | 0.00 | 70 | 1004.3 |
| 20260505225943 | 78 | 324 | 3.5 | 7.8 | 0.00 | 0.00 | 0.00 | 65 | 1004.1 |
| 20260505225440 | 78 | 219 | 2.6 | 4.3 | 0.00 | 0.00 | 0.00 | 68 | 1004.0 |
| 20260505224936 | 78 | 187 | 2.6 | 2.6 | 0.00 | 0.00 | 0.00 | 71 | 1004.0 |
| 20260505224433 | 79 | 90 | 0.0 | 1.7 | 0.00 | 0.00 | 0.00 | 68 | 1003.9 |
| 20260505223930 | 79 | 174 | 0.9 | 1.7 | 0.00 | 0.00 | 0.00 | 70 | 1003.8 |
| 20260505223427 | 79 | 107 | 1.7 | 2.6 | 0.00 | 0.00 | 0.00 | 69 | 1004.0 |
| 20260505222923 | 79 | 157 | 1.7 | 1.7 | 0.00 | 0.00 | 0.00 | 67 | 1003.6 |
| 20260505222420 | 79 | 99 | 0.0 | 3.5 | 0.00 | 0.00 | 0.00 | 66 | 1003.8 |
| 20260505221916 | 79 | 172 | 2.6 | 4.3 | 0.00 | 0.00 | 0.00 | 66 | 1003.9 |
| 20260505221414 | 79 | 241 | 1.7 | 3.5 | 0.00 | 0.00 | 0.00 | 66 | 1003.8 |
| 20260505220910 | 79 | 180 | 1.7 | 2.6 | 0.00 | 0.00 | 0.00 | 67 | 1004.2 |
| 20260505220407 | 79 | 180 | 2.6 | 2.6 | 0.00 | 0.00 | 0.00 | 66 | 1004.2 |
| 20260505215905 | 78 | 159 | 1.7 | 4.3 | 0.00 | 0.00 | 0.00 | 66 | 1004.0 |
| 20260505215403 | 78 | 185 | 4.3 | 7.0 | 0.00 | 0.00 | 0.00 | 65 | 1004.3 |
| 20260505214900 | 79 | 152 | 1.7 | 3.5 | 0.00 | 0.00 | 0.00 | 66 | 1004.4 |
| 20260505214358 | 80 | 184 | 1.7 | 2.6 | 0.00 | 0.00 | 0.00 | 64 | 1004.1 |
| 20260505213855 | 80 | 185 | 2.6 | 2.6 | 0.00 | 0.00 | 0.00 | 63 | 1004.0 |
| 20260505213353 | 80 | 165 | 1.7 | 1.7 | 0.00 | 0.00 | 0.00 | 63 | 1003.9 |
| 20260505212849 | 80 | 167 | 2.6 | 2.6 | 0.00 | 0.00 | 0.00 | 63 | 1004.0 |
| 20260505212346 | 80 | 167 | 2.6 | 3.5 | 0.00 | 0.00 | 0.00 | 63 | 1004.0 |
| 20260505211842 | 79 | 162 | 3.5 | 5.2 | 0.00 | 0.00 | 0.00 | 64 | 1004.2 |
| 20260505211340 | 79 | 132 | 1.7 | 4.3 | 0.00 | 0.00 | 0.00 | 63 | 1004.0 |
| 20260505210836 | 80 | 170 | 2.6 | 3.5 | 0.00 | 0.00 | 0.00 | 63 | 1004.1 |
| 20260505210333 | 79 | 143 | 2.6 | 4.3 | 0.00 | 0.00 | 0.00 | 64 | 1004.3 |
| 20260505205830 | 79 | 170 | 2.6 | 2.6 | 0.00 | 0.00 | 0.00 | 66 | 1004.8 |
| 20260505205328 | 78 | 143 | 2.6 | 4.3 | 0.00 | 0.00 | 0.00 | 66 | 1004.7 |
| 20260505204824 | 79 | 194 | 0.9 | 4.3 | 0.00 | 0.00 | 0.00 | 65 | 1004.6 |
| 20260505204323 | 79 | 198 | 1.7 | 3.5 | 0.00 | 0.00 | 0.00 | 66 | 1004.7 |
| 20260505203820 | 79 | 243 | 2.6 | 2.6 | 0.00 | 0.00 | 0.00 | 65 | 1004.6 |
| 20260505203316 | 79 | 216 | 1.7 | 5.2 | 0.00 | 0.00 | 0.00 | 65 | 1004.5 |
| 20260505202812 | 79 | 209 | 0.9 | 3.5 | 0.00 | 0.00 | 0.00 | 64 | 1004.5 |
| 20260505202309 | 79 | 194 | 3.5 | 4.3 | 0.00 | 0.00 | 0.00 | 64 | 1004.6 |
| 20260505201805 | 80 | 190 | 1.7 | 1.7 | 0.00 | 0.00 | 0.00 | 64 | 1004.7 |
| 20260505201303 | 79 | 154 | 0.0 | 3.5 | 0.00 | 0.00 | 0.00 | 66 | 1004.7 |
| 20260505200801 | 78 | 154 | 0.9 | 5.2 | 0.00 | 0.00 | 0.00 | 67 | 1004.5 |
| 20260505200258 | 78 | 191 | 4.3 | 4.3 | 0.00 | 0.00 | 0.00 | 67 | 1004.6 |
| 20260505195753 | 78 | 154 | 2.6 | 6.1 | 0.00 | 0.00 | 0.00 | 67 | 1004.9 |
| 20260505195251 | 77 | 251 | 0.0 | 2.6 | 0.00 | 0.00 | 0.00 | 67 | 1004.9 |
| 20260505194748 | 77 | 233 | 1.7 | 4.3 | 0.00 | 0.00 | 0.00 | 68 | 1005.0 |
| 20260505194245 | 78 | 170 | 2.6 | 4.3 | 0.00 | 0.00 | 0.00 | 69 | 1005.3 |
| 20260505193740 | 77 | 194 | 2.6 | 6.1 | 0.00 | 0.00 | 0.00 | 68 | 1005.2 |
| 20260505193238 | 77 | 180 | 5.2 | 5.2 | 0.00 | 0.00 | 0.00 | 67 | 1005.3 |
| 20260505192736 | 77 | 187 | 4.3 | 6.1 | 0.00 | 0.00 | 0.00 | 68 | 1005.4 |
| 20260505192233 | 77 | 199 | 3.5 | 6.1 | 0.00 | 0.00 | 0.00 | 69 | 1005.4 |
| 20260505191731 | 78 | 152 | 2.6 | 3.5 | 0.00 | 0.00 | 0.00 | 68 | 1005.0 |
| 20260505191230 | 77 | 173 | 0.0 | 4.3 | 0.00 | 0.00 | 0.00 | 68 | 1005.0 |
| 20260505190725 | 77 | 186 | 3.5 | 4.3 | 0.00 | 0.00 | 0.00 | 67 | 1005.1 |
| 20260505190225 | 77 | 189 | 4.3 | 5.2 | 0.00 | 0.00 | 0.00 | 68 | 1005.1 |
| 20260505185722 | 77 | 197 | 3.5 | 7.0 | 0.00 | 0.00 | 0.00 | 69 | 1005.3 |
| 20260505185219 | 77 | 175 | 7.0 | 7.0 | 0.00 | 0.00 | 0.00 | 68 | 1004.9 |
| 20260505184714 | 76 | 176 | 2.6 | 4.3 | 0.00 | 0.00 | 0.00 | 69 | 1005.0 |
| 20260505184212 | 77 | 150 | 1.7 | 4.3 | 0.00 | 0.00 | 0.00 | 68 | 1005.0 |
| 20260505183709 | 76 | 195 | 2.6 | 5.2 | 0.00 | 0.00 | 0.00 | 70 | 1005.0 |
| 20260505183207 | 76 | 176 | 3.5 | 9.6 | 0.00 | 0.00 | 0.00 | 69 | 1005.2 |
| 20260505182702 | 76 | 184 | 11.3 | 11.3 | 0.00 | 0.00 | 0.00 | 68 | 1005.1 |
| 20260505182200 | 76 | 178 | 3.5 | 7.8 | 0.00 | 0.00 | 0.00 | 69 | 1004.9 |
| 20260505181656 | 76 | 168 | 0.9 | 7.0 | 0.00 | 0.00 | 0.00 | 70 | 1004.8 |
| 20260505181154 | 76 | 176 | 3.5 | 6.1 | 0.00 | 0.00 | 0.00 | 70 | 1005.0 |
| 20260505180650 | 76 | 168 | 1.7 | 6.1 | 0.00 | 0.00 | 0.00 | 70 | 1004.8 |
| 20260505180147 | 75 | 195 | 5.2 | 5.2 | 0.00 | 0.00 | 0.00 | 71 | 1005.1 |
| 20260505175643 | 75 | 172 | 0.0 | 2.6 | 0.00 | 0.00 | 0.00 | 71 | 1005.0 |
| 20260505175139 | 75 | 135 | 5.2 | 7.8 | 0.00 | 0.00 | 0.00 | 71 | 1005.2 |
| 20260505174636 | 76 | 159 | 5.2 | 8.7 | 0.00 | 0.00 | 0.00 | 70 | 1005.2 |
| 20260505174132 | 76 | 161 | 1.7 | 5.2 | 0.00 | 0.00 | 0.00 | 70 | 1005.1 |
| 20260505173629 | 76 | 169 | 4.3 | 6.1 | 0.00 | 0.00 | 0.00 | 70 | 1005.2 |
| 20260505173126 | 75 | 173 | 0.9 | 4.3 | 0.00 | 0.00 | 0.00 | 71 | 1005.1 |
| 20260505172623 | 75 | 170 | 2.6 | 6.1 | 0.00 | 0.00 | 0.00 | 71 | 1005.3 |
| 20260505172120 | 75 | 163 | 2.6 | 5.2 | 0.00 | 0.00 | 0.00 | 72 | 1005.1 |
| 20260505171615 | 75 | 178 | 3.5 | 7.8 | 0.00 | 0.00 | 0.00 | 72 | 1005.2 |
| 20260505171112 | 75 | 181 | 5.2 | 6.1 | 0.00 | 0.00 | 0.00 | 71 | 1005.4 |
| 20260505170609 | 75 | 194 | 2.6 | 5.2 | 0.00 | 0.00 | 0.00 | 72 | 1005.2 |
| 20260505170105 | 75 | 204 | 5.2 | 8.7 | 0.00 | 0.00 | 0.00 | 71 | 1005.2 |
| 20260505165600 | 75 | 214 | 2.6 | 5.2 | 0.00 | 0.00 | 0.00 | 72 | 1005.3 |
| 20260505165056 | 75 | 188 | 4.3 | 5.2 | 0.00 | 0.00 | 0.00 | 71 | 1005.4 |
| 20260505164552 | 75 | 133 | 2.6 | 7.8 | 0.00 | 0.00 | 0.00 | 71 | 1005.5 |
| 20260505164050 | 74 | 78 | 2.6 | 4.3 | 0.00 | 0.00 | 0.00 | 75 | 1005.5 |
| 20260505163549 | 73 | 60 | 1.7 | 6.1 | 0.00 | 0.00 | 0.00 | 77 | 1005.2 |
| 20260505163045 | 72 | 82 | 4.3 | 4.3 | 0.00 | 0.00 | 0.00 | 77 | 1005.5 |
| 20260505162538 | 72 | 90 | 3.5 | 6.1 | 0.00 | 0.00 | 0.00 | 77 | 1005.5 |
| 20260505162035 | 71 | 118 | 5.2 | 8.7 | 0.00 | 0.00 | 0.00 | 77 | 1005.4 |
| 20260505161532 | 71 | 107 | 7.8 | 8.7 | 0.00 | 0.00 | 0.00 | 78 | 1005.3 |
| 20260505161029 | 71 | 80 | 3.5 | 7.8 | 0.00 | 0.00 | 0.00 | 79 | 1005.4 |
| 20260505160527 | 71 | 139 | 0.0 | 7.0 | 0.00 | 0.00 | 0.00 | 80 | 1005.7 |
| 20260505153003 | 68 | 64 | 7.0 | 9.6 | 0.00 | 0.00 | 0.00 | 83 | 1005.7 |
| 20260505152501 | 68 | 36 | 2.6 | 8.7 | 0.00 | 0.00 | 0.00 | 84 | 1005.7 |
| 20260505151955 | 67 | 90 | 4.3 | 6.1 | 0.00 | 0.00 | 0.00 | 85 | 1005.9 |
| 20260505151451 | 66 | 84 | 5.2 | 8.7 | 0.00 | 0.00 | 0.00 | 86 | 1006.1 |
| 20260505150949 | 66 | 81 | 4.3 | 7.8 | 0.00 | 0.00 | 0.00 | 86 | 1006.1 |
| 20260505150445 | 66 | 80 | 1.7 | 8.7 | 0.00 | 0.00 | 0.00 | 86 | 1006.1 |
| 20260505140416 | 64 | 53 | 5.2 | 11.3 | 0.00 | 0.00 | 0.00 | 87 | 1006.5 |
| 20260505124829 | 66 | 99 | 4.3 | 6.1 | 0.00 | 0.00 | 0.00 | 80 | 1006.1 |
| 20260505124326 | 66 | 71 | 5.2 | 7.8 | 0.00 | 0.00 | 0.00 | 78 | 1006.4 |
| 20260505123822 | 66 | 79 | 3.5 | 6.1 | 0.00 | 0.00 | 0.00 | 77 | 1006.0 |
| 20260505123319 | 66 | 90 | 3.5 | 5.2 | 0.00 | 0.00 | 0.00 | 77 | 1006.2 |
| 20260505122815 | 66 | 20 | 7.8 | 7.8 | 0.00 | 0.00 | 0.00 | 76 | 1006.2 |
| 20260505122312 | 67 | 101 | 1.7 | 6.1 | 0.00 | 0.00 | 0.00 | 75 | 1006.0 |
| 20260505121809 | 66 | 77 | 4.3 | 4.3 | 0.00 | 0.00 | 0.00 | 75 | 1006.1 |
| 20260505121306 | 66 | 34 | 2.6 | 5.2 | 0.00 | 0.00 | 0.00 | 75 | 1005.9 |
| 20260505120802 | 67 | 94 | 4.3 | 6.1 | 0.00 | 0.00 | 0.00 | 74 | 1005.8 |
| 20260505120258 | 67 | 70 | 2.6 | 6.1 | 0.00 | 0.00 | 0.00 | 74 | 1005.6 |
| 20260505115757 | 67 | 72 | 2.6 | 6.1 | 0.00 | 0.00 | 0.00 | 74 | 1005.6 |
| 20260505115254 | 67 | 79 | 2.6 | 3.5 | 0.00 | 0.00 | 0.00 | 74 | 1005.5 |
| 20260505114752 | 67 | 75 | 1.7 | 5.2 | 0.00 | 0.00 | 0.00 | 73 | 1005.2 |
| 20260505114248 | 67 | 96 | 0.9 | 6.1 | 0.00 | 0.00 | 0.00 | 73 | 1005.5 |
| 20260505113745 | 67 | 0 | 1.7 | 6.1 | 0.00 | 0.00 | 0.00 | 73 | 1005.5 |
| 20260505113241 | 67 | 48 | 5.2 | 5.2 | 0.00 | 0.00 | 0.00 | 74 | 1005.2 |
| 20260505112737 | 67 | 79 | 3.5 | 5.2 | 0.00 | 0.00 | 0.00 | 73 | 1005.3 |
| 20260505112235 | 67 | 63 | 3.5 | 4.3 | 0.00 | 0.00 | 0.00 | 73 | 1005.3 |
| 20260505111735 | 67 | 95 | 3.5 | 4.3 | 0.00 | 0.00 | 0.00 | 73 | 1005.1 |
| 20260505111231 | 66 | 66 | 2.6 | 2.6 | 0.00 | 0.00 | 0.00 | 74 | 1005.1 |
| 20260505110727 | 66 | 63 | 1.7 | 4.3 | 0.00 | 0.00 | 0.00 | 73 | 1005.0 |
| 20260505110225 | 66 | 102 | 1.7 | 4.3 | 0.00 | 0.00 | 0.00 | 74 | 1004.9 |
| 20260505102200 | 66 | 70 | 4.3 | 6.1 | 0.00 | 0.00 | 0.00 | 74 | 1004.8 |
| 20260505101659 | 66 | 90 | 2.6 | 4.3 | 0.00 | 0.00 | 0.00 | 74 | 1004.6 |
| 20260505101154 | 66 | 87 | 2.6 | 7.0 | 0.00 | 0.00 | 0.00 | 74 | 1004.7 |
| 20260505100651 | 66 | 33 | 1.7 | 5.2 | 0.00 | 0.00 | 0.00 | 74 | 1004.8 |
| 20260505100148 | 66 | 90 | 0.9 | 9.6 | 0.00 | 0.00 | 0.00 | 74 | 1004.7 |
| 20260505095644 | 66 | 86 | 2.6 | 6.1 | 0.00 | 0.00 | 0.00 | 74 | 1004.9 |
| 20260505095142 | 66 | 90 | 2.6 | 5.2 | 0.00 | 0.00 | 0.00 | 74 | 1004.9 |
| 20260505094637 | 66 | 81 | 2.6 | 5.2 | 0.00 | 0.00 | 0.00 | 74 | 1005.0 |
| 20260505094134 | 66 | 102 | 3.5 | 5.2 | 0.00 | 0.00 | 0.00 | 74 | 1004.8 |
| 20260505093630 | 66 | 90 | 4.3 | 5.2 | 0.00 | 0.00 | 0.00 | 74 | 1005.0 |
| 20260505093127 | 66 | 88 | 3.5 | 4.3 | 0.00 | 0.00 | 0.00 | 74 | 1004.8 |
| 20260505092624 | 66 | 27 | 3.5 | 3.5 | 0.00 | 0.00 | 0.00 | 73 | 1004.6 |
| 20260505092123 | 67 | 106 | 0.0 | 4.3 | 0.00 | 0.00 | 0.00 | 72 | 1004.7 |
| 20260505091619 | 67 | 93 | 3.5 | 5.2 | 0.00 | 0.00 | 0.00 | 69 | 1004.7 |
| 20260505091118 | 67 | 60 | 0.0 | 2.6 | 0.00 | 0.00 | 0.00 | 69 | 1004.7 |
| 20260505090615 | 67 | 102 | 1.7 | 3.5 | 0.00 | 0.00 | 0.00 | 69 | 1004.7 |
| 20260505090113 | 67 | 60 | 2.6 | 4.3 | 0.00 | 0.00 | 0.00 | 69 | 1004.6 |
| 20260505085610 | 67 | 74 | 1.7 | 5.2 | 0.00 | 0.00 | 0.00 | 69 | 1004.4 |
| 20260505085109 | 67 | 66 | 4.3 | 4.3 | 0.00 | 0.00 | 0.00 | 69 | 1004.2 |
| 20260505084606 | 67 | 62 | 2.6 | 4.3 | 0.00 | 0.00 | 0.00 | 70 | 1004.6 |
| 20260505084104 | 67 | 94 | 2.6 | 5.2 | 0.00 | 0.00 | 0.00 | 70 | 1004.2 |
| 20260505083601 | 67 | 73 | 3.5 | 3.5 | 0.00 | 0.00 | 0.00 | 70 | 1004.2 |
| 20260505083058 | 67 | 90 | 1.7 | 5.2 | 0.00 | 0.00 | 0.00 | 70 | 1004.2 |
| 20260505082553 | 67 | 63 | 3.5 | 5.2 | 0.00 | 0.00 | 0.00 | 70 | 1004.0 |
| 20260505082051 | 66 | 109 | 0.0 | 1.7 | 0.00 | 0.00 | 0.00 | 71 | 1004.1 |
| 20260505081547 | 66 | 105 | 1.7 | 3.5 | 0.00 | 0.00 | 0.00 | 71 | 1004.2 |
| 20260505081044 | 66 | 63 | 2.6 | 4.3 | 0.00 | 0.00 | 0.00 | 72 | 1004.2 |
| 20260505080540 | 66 | 71 | 1.7 | 4.3 | 0.00 | 0.00 | 0.00 | 72 | 1004.1 |
| 20260505080037 | 66 | 96 | 2.6 | 2.6 | 0.00 | 0.00 | 0.00 | 72 | 1004.0 |
| 20260505075533 | 66 | 67 | 2.6 | 5.2 | 0.00 | 0.00 | 0.00 | 72 | 1004.1 |
| 20260505075030 | 66 | 86 | 1.7 | 3.5 | 0.00 | 0.00 | 0.00 | 72 | 1004.3 |
| 20260505074527 | 66 | 21 | 2.6 | 5.2 | 0.00 | 0.00 | 0.00 | 72 | 1004.2 |
| 20260505074024 | 66 | 100 | 1.7 | 4.3 | 0.00 | 0.00 | 0.00 | 71 | 1004.3 |
| 20260505073521 | 66 | 103 | 0.9 | 4.3 | 0.00 | 0.00 | 0.00 | 72 | 1004.3 |
| 20260505073020 | 67 | 73 | 1.7 | 5.2 | 0.00 | 0.00 | 0.00 | 71 | 1004.6 |
| 20260505072515 | 67 | 76 | 2.6 | 5.2 | 0.00 | 0.00 | 0.00 | 71 | 1004.8 |
| 20260505072011 | 67 | 87 | 2.6 | 7.0 | 0.00 | 0.00 | 0.00 | 71 | 1004.7 |
| 20260505071507 | 67 | 52 | 2.6 | 3.5 | 0.00 | 0.00 | 0.00 | 71 | 1005.1 |
| 20260505071006 | 67 | 10 | 2.6 | 2.6 | 0.00 | 0.00 | 0.00 | 71 | 1005.0 |
| 20260505070503 | 67 | 103 | 0.9 | 7.8 | 0.00 | 0.00 | 0.00 | 71 | 1005.1 |
| 20260505065958 | 67 | 90 | 2.6 | 5.2 | 0.00 | 0.00 | 0.00 | 72 | 1005.2 |
| 20260505065454 | 66 | 90 | 3.5 | 4.3 | 0.00 | 0.00 | 0.00 | 72 | 1005.6 |
| 20260505064951 | 66 | 115 | 1.7 | 4.3 | 0.00 | 0.00 | 0.00 | 72 | 1005.6 |
| 20260505064448 | 67 | 82 | 3.5 | 3.5 | 0.00 | 0.00 | 0.00 | 71 | 1005.8 |
| 20260505063947 | 67 | 45 | 2.6 | 3.5 | 0.00 | 0.00 | 0.00 | 73 | 1005.9 |
| 20260505063442 | 66 | 74 | 0.0 | 1.7 | 0.00 | 0.00 | 0.00 | 74 | 1006.0 |
| 20260505062939 | 66 | 114 | 0.9 | 1.7 | 0.00 | 0.00 | 0.00 | 74 | 1005.6 |
| 20260505062436 | 66 | 77 | 2.6 | 2.6 | 0.00 | 0.00 | 0.00 | 74 | 1005.6 |
| 20260505061933 | 66 | 73 | 1.7 | 2.6 | 0.00 | 0.00 | 0.00 | 77 | 1005.9 |
| 20260505061431 | 66 | 48 | 1.7 | 3.5 | 0.00 | 0.00 | 0.00 | 74 | 1006.1 |
| 20260505060928 | 66 | 4 | 1.7 | 2.6 | 0.00 | 0.00 | 0.00 | 73 | 1005.9 |
| 20260505060425 | 66 | 45 | 2.6 | 2.6 | 0.00 | 0.00 | 0.00 | 73 | 1005.7 |
| 20260505055922 | 66 | 86 | 2.6 | 6.1 | 0.00 | 0.00 | 0.00 | 72 | 1005.6 |
| 20260505055418 | 67 | 90 | 1.7 | 4.3 | 0.00 | 0.00 | 0.00 | 70 | 1005.9 |
| 20260505054915 | 67 | 74 | 1.7 | 4.3 | 0.00 | 0.00 | 0.00 | 69 | 1005.6 |
| 20260505054412 | 68 | 84 | 2.6 | 7.0 | 0.00 | 0.00 | 0.00 | 68 | 1006.2 |
| 20260505053910 | 68 | 131 | 0.0 | 2.6 | 0.00 | 0.00 | 0.00 | 68 | 1006.9 |
| 20260505053407 | 68 | 113 | 2.6 | 2.6 | 0.00 | 0.00 | 0.00 | 67 | 1007.3 |
| 20260505052903 | 68 | 96 | 1.7 | 2.6 | 0.00 | 0.00 | 0.00 | 67 | 1007.4 |
| 20260505052400 | 67 | 102 | 1.7 | 2.6 | 0.00 | 0.00 | 0.00 | 68 | 1007.7 |
| 20260505051858 | 67 | 352 | 2.6 | 3.5 | 0.00 | 0.00 | 0.00 | 68 | 1008.0 |
| 20260505051355 | 67 | 348 | 2.6 | 3.5 | 0.00 | 0.00 | 0.00 | 68 | 1007.3 |
| 20260505050853 | 67 | 0 | 1.7 | 2.6 | 0.00 | 0.00 | 0.00 | 69 | 1007.1 |
| 20260505050351 | 67 | 4 | 1.7 | 2.6 | 0.00 | 0.00 | 0.00 | 69 | 1006.9 |
| 20260505041319 | 68 | 74 | 0.0 | 2.6 | 0.00 | 0.00 | 0.00 | 65 | 1007.2 |
| 20260505040815 | 69 | 90 | 1.7 | 1.7 | 0.00 | 0.00 | 0.00 | 63 | 1007.1 |
| 20260505040313 | 68 | 114 | 0.0 | 0.9 | 0.00 | 0.00 | 0.00 | 63 | 1007.2 |
| 20260505035809 | 68 | 165 | 0.0 | 0.0 | 0.00 | 0.00 | 0.00 | 63 | 1007.1 |
| 20260505035305 | 69 | 75 | 0.0 | 1.7 | 0.00 | 0.00 | 0.00 | 62 | 1007.3 |
| 20260505034803 | 68 | 162 | 0.0 | 0.9 | 0.00 | 0.00 | 0.00 | 63 | 1007.2 |
| 20260505034259 | 69 | 114 | 0.0 | 0.9 | 0.00 | 0.00 | 0.00 | 63 | 1007.4 |
| 20260505033756 | 69 | 90 | 0.0 | 2.6 | 0.00 | 0.00 | 0.00 | 62 | 1007.6 |
| 20260505033254 | 68 | 90 | 0.9 | 1.7 | 0.00 | 0.00 | 0.00 | 65 | 1007.7 |
| 20260505032752 | 68 | 195 | 0.0 | 0.0 | 0.00 | 0.00 | 0.00 | 64 | 1007.4 |
| 20260505032247 | 69 | 188 | 0.0 | 0.9 | 0.00 | 0.00 | 0.00 | 64 | 1007.6 |
| 20260505031745 | 69 | 172 | 0.0 | 0.0 | 0.00 | 0.00 | 0.00 | 63 | 1007.7 |
| 20260505031241 | 69 | 66 | 0.0 | 0.0 | 0.00 | 0.00 | 0.00 | 63 | 1007.6 |
| 20260505030738 | 69 | 180 | 0.0 | 1.7 | 0.00 | 0.00 | 0.00 | 64 | 1007.4 |
| 20260505030234 | 69 | 172 | 0.0 | 0.0 | 0.00 | 0.00 | 0.00 | 64 | 1007.3 |
| 20260505025730 | 69 | 172 | 0.0 | 0.0 | 0.00 | 0.00 | 0.00 | 62 | 1007.6 |
| 20260505025228 | 70 | 172 | 0.0 | 0.0 | 0.00 | 0.00 | 0.00 | 61 | 1007.8 |
| 20260505024726 | 70 | 180 | 0.0 | 0.0 | 0.00 | 0.00 | 0.00 | 61 | 1007.9 |
| 20260505024223 | 70 | 180 | 0.0 | 0.0 | 0.00 | 0.00 | 0.00 | 60 | 1007.7 |
| 20260505023720 | 71 | 180 | 0.0 | 0.9 | 0.00 | 0.00 | 0.00 | 59 | 1007.6 |
| 20260505023218 | 71 | 166 | 0.0 | 0.9 | 0.00 | 0.00 | 0.00 | 58 | 1007.7 |
| 20260505022715 | 71 | 278 | 0.0 | 1.7 | 0.00 | 0.00 | 0.00 | 58 | 1007.5 |
| 20260505022212 | 71 | 102 | 0.0 | 0.0 | 0.00 | 0.00 | 0.00 | 58 | 1007.4 |
| 20260505021708 | 71 | 102 | 0.0 | 0.0 | 0.00 | 0.00 | 0.00 | 57 | 1007.3 |
| 20260505021206 | 71 | 117 | 0.0 | 0.9 | 0.00 | 0.00 | 0.00 | 57 | 1007.4 |
| 20260505020701 | 71 | 254 | 0.0 | 0.0 | 0.00 | 0.00 | 0.00 | 58 | 1007.2 |
| 20260505020157 | 71 | 180 | 0.0 | 0.9 | 0.00 | 0.00 | 0.00 | 57 | 1007.1 |
| 20260505015654 | 72 | 221 | 0.0 | 1.7 | 0.00 | 0.00 | 0.00 | 56 | 1007.2 |
| 20260505015151 | 73 | 173 | 0.0 | 0.9 | 0.00 | 0.00 | 0.00 | 56 | 1007.4 |
| 20260505014648 | 72 | 180 | 1.7 | 1.7 | 0.00 | 0.00 | 0.00 | 55 | 1007.1 |
| 20260505014145 | 73 | 188 | 0.0 | 0.0 | 0.00 | 0.00 | 0.00 | 54 | 1006.9 |
| 20260505013642 | 73 | 191 | 0.0 | 1.7 | 0.00 | 0.00 | 0.00 | 54 | 1006.8 |
| 20260505013139 | 73 | 198 | 0.9 | 1.7 | 0.00 | 0.00 | 0.00 | 53 | 1007.0 |
| 20260505012637 | 74 | 186 | 0.9 | 2.6 | 0.00 | 0.00 | 0.00 | 52 | 1006.7 |
| 20260505012134 | 74 | 172 | 1.7 | 2.6 | 0.00 | 0.00 | 0.00 | 52 | 1006.6 |
| 20260505011630 | 74 | 204 | 1.7 | 5.2 | 0.00 | 0.00 | 0.00 | 51 | 1006.5 |
| 20260505011127 | 75 | 180 | 0.0 | 3.5 | 0.00 | 0.00 | 0.00 | 51 | 1006.5 |
| 20260505010622 | 75 | 178 | 5.2 | 5.2 | 0.00 | 0.00 | 0.00 | 50 | 1006.4 |
| 20260505010119 | 75 | 175 | 0.9 | 6.1 | 0.00 | 0.00 | 0.00 | 51 | 1006.3 |
| 20260505005615 | 75 | 185 | 2.6 | 6.1 | 0.00 | 0.00 | 0.00 | 50 | 1006.3 |
| 20260505005112 | 75 | 189 | 3.5 | 6.1 | 0.00 | 0.00 | 0.00 | 51 | 1006.4 |
| 20260505004609 | 75 | 195 | 1.7 | 4.3 | 0.00 | 0.00 | 0.00 | 52 | 1006.4 |
| 20260505004106 | 75 | 180 | 2.6 | 3.5 | 0.00 | 0.00 | 0.00 | 51 | 1006.4 |
| 20260505003603 | 76 | 170 | 2.6 | 4.3 | 0.00 | 0.00 | 0.00 | 50 | 1006.5 |
| 20260505003101 | 76 | 180 | 1.7 | 3.5 | 0.00 | 0.00 | 0.00 | 51 | 1006.5 |
| 20260505002556 | 76 | 149 | 2.6 | 3.5 | 0.00 | 0.00 | 0.00 | 49 | 1006.4 |
| 20260505002055 | 77 | 180 | 3.5 | 4.3 | 0.00 | 0.00 | 0.00 | 49 | 1006.4 |
| 20260505001552 | 77 | 190 | 3.5 | 5.2 | 0.00 | 0.00 | 0.00 | 49 | 1006.4 |
| 20260505001049 | 77 | 180 | 2.6 | 5.2 | 0.00 | 0.00 | 0.00 | 47 | 1006.5 |
| 20260505000546 | 77 | 183 | 2.6 | 5.2 | 0.00 | 0.00 | 0.00 | 47 | 1006.5 |
| 20260505000044 | 78 | 179 | 4.3 | 9.6 | 0.00 | 0.00 | 0.00 | 46 | 1006.5 |
| 20260504235540 | 78 | 158 | 2.6 | 6.1 | 0.00 | 0.00 | 0.00 | 46 | 1006.5 |
| 20260504235037 | 78 | 169 | 3.5 | 8.7 | 0.00 | 0.00 | 0.00 | 46 | 1006.3 |
| 20260504234534 | 78 | 177 | 4.3 | 7.0 | 0.00 | 0.00 | 0.00 | 45 | 1006.7 |
| 20260504234031 | 78 | 165 | 5.2 | 5.2 | 0.00 | 0.00 | 0.00 | 46 | 1006.5 |
| 20260504233526 | 78 | 174 | 2.6 | 8.7 | 0.00 | 0.00 | 0.00 | 45 | 1006.8 |
| 20260504233023 | 78 | 171 | 3.5 | 8.7 | 0.00 | 0.00 | 0.00 | 46 | 1006.6 |
| 20260504232520 | 78 | 180 | 5.2 | 6.1 | 0.00 | 0.00 | 0.00 | 45 | 1006.8 |
| 20260504232018 | 78 | 169 | 4.3 | 7.8 | 0.00 | 0.00 | 0.00 | 46 | 1006.8 |
| 20260504231514 | 78 | 152 | 4.3 | 14.8 | 0.00 | 0.00 | 0.00 | 45 | 1006.5 |